owner,sensor,date,latitude,longitude,air_temperature,qcFlag 
DISL,ioos:station:DISL:BSCA:1,2019-10-01T00:56:00Z,30.3288,-87.8293,28.49,11111222 
DISL,ioos:station:DISL:BSCA:1,2019-10-01T01:56:00Z,30.3288,-87.8293,28.53,11111222 
DISL,ioos:station:DISL:BSCA:1,2019-10-01T02:56:00Z,30.3288,-87.8293,28.53,11111222 
DISL,ioos:station:DISL:BSCA:1,2019-10-01T03:56:00Z,30.3288,-87.8293,28.63,11111222 
DISL,ioos:station:DISL:BSCA:1,2019-10-01T04:56:00Z,30.3288,-87.8293,26.94,11111222 
DISL,ioos:station:DISL:BSCA:1,2019-10-01T05:56:00Z,30.3288,-87.8293,26.57,11111222 
DISL,ioos:station:DISL:BSCA:1,2019-10-01T06:56:00Z,30.3288,-87.8293,26.26,11111222 
DISL,ioos:station:DISL:BSCA:1,2019-10-01T07:56:00Z,30.3288,-87.8293,25.99,11111222 
DISL,ioos:station:DISL:BSCA:1,2019-10-01T08:56:00Z,30.3288,-87.8293,25.89,11111222 
DISL,ioos:station:DISL:BSCA:1,2019-10-01T09:56:00Z,30.3288,-87.8293,25.69,11111222 
DISL,ioos:station:DISL:BSCA:1,2019-10-01T10:56:00Z,30.3288,-87.8293,25.92,11111222 
DISL,ioos:station:DISL:BSCA:1,2019-10-01T11:56:00Z,30.3288,-87.8293,25.28,11111222 
DISL,ioos:station:DISL:BSCA:1,2019-10-01T12:56:00Z,30.3288,-87.8293,25.42,11111222 
DISL,ioos:station:DISL:BSCA:1,2019-10-01T13:56:00Z,30.3288,-87.8293,18.65,11111222 
DISL,ioos:station:DISL:BSCA:1,2019-10-01T14:56:00Z,30.3288,-87.8293,29.39,11111222 
DISL,ioos:station:DISL:BSCA:1,2019-10-01T15:56:00Z,30.3288,-87.8293,30.51,11111222 
DISL,ioos:station:DISL:BSCA:1,2019-10-01T16:56:00Z,30.3288,-87.8293,32.1,11111222 
DISL,ioos:station:DISL:BSCA:1,2019-10-01T17:56:00Z,30.3288,-87.8293,30.07,11111222 
DISL,ioos:station:DISL:BSCA:1,2019-10-01T18:56:00Z,30.3288,-87.8293,30.82,11111222 
DISL,ioos:station:DISL:BSCA:1,2019-10-01T19:56:00Z,30.3288,-87.8293,30.44,11111222 
DISL,ioos:station:DISL:BSCA:1,2019-10-01T20:56:00Z,30.3288,-87.8293,30.65,11111222 
DISL,ioos:station:DISL:BSCA:1,2019-10-01T21:56:00Z,30.3288,-87.8293,30.61,11111222 
DISL,ioos:station:DISL:BSCA:1,2019-10-01T22:56:00Z,30.3288,-87.8293,29.77,11111222 
DISL,ioos:station:DISL:BSCA:1,2019-10-01T23:56:00Z,30.3288,-87.8293,29.16,11111222 
DISL,ioos:station:DISL:BSCA:1,2019-10-02T00:56:00Z,30.3288,-87.8293,28.93,11111222 
DISL,ioos:station:DISL:BSCA:1,2019-10-02T01:56:00Z,30.3288,-87.8293,28.7,11111222 
DISL,ioos:station:DISL:BSCA:1,2019-10-02T02:56:00Z,30.3288,-87.8293,28.53,11111222 
DISL,ioos:station:DISL:BSCA:1,2019-10-02T03:56:00Z,30.3288,-87.8293,28.53,11111222 
DISL,ioos:station:DISL:BSCA:1,2019-10-02T05:27:00Z,30.3288,-87.8293,28.36,11111222 
DISL,ioos:station:DISL:BSCA:1,2019-10-02T06:56:00Z,30.3288,-87.8293,26.73,11111222 
DISL,ioos:station:DISL:BSCA:1,2019-10-02T07:56:00Z,30.3288,-87.8293,25.82,11111222 
DISL,ioos:station:DISL:BSCA:1,2019-10-02T08:56:00Z,30.3288,-87.8293,25.65,11111222 
DISL,ioos:station:DISL:BSCA:1,2019-10-02T09:56:00Z,30.3288,-87.8293,25.42,11111222 
DISL,ioos:station:DISL:BSCA:1,2019-10-02T10:56:00Z,30.3288,-87.8293,25.08,11111222 
DISL,ioos:station:DISL:BSCA:1,2019-10-02T11:56:00Z,30.3288,-87.8293,24.91,11111222 
DISL,ioos:station:DISL:BSCA:1,2019-10-02T12:56:00Z,30.3288,-87.8293,25.14,11111222 
DISL,ioos:station:DISL:BSCA:1,2019-10-02T13:56:00Z,30.3288,-87.8293,26.84,11111222 
DISL,ioos:station:DISL:BSCA:1,2019-10-02T14:56:00Z,30.3288,-87.8293,28.28,11111222 
DISL,ioos:station:DISL:BSCA:1,2019-10-02T15:56:00Z,30.3288,-87.8293,29.73,11111222 
DISL,ioos:station:DISL:BSCA:1,2019-10-02T16:56:00Z,30.3288,-87.8293,30.44,11111222 
DISL,ioos:station:DISL:BSCA:1,2019-10-02T17:56:00Z,30.3288,-87.8293,29.33,11111222 
DISL,ioos:station:DISL:BSCA:1,2019-10-02T18:56:00Z,30.3288,-87.8293,28.79,11111222 
DISL,ioos:station:DISL:BSCA:1,2019-10-02T19:56:00Z,30.3288,-87.8293,29.16,11111222 
DISL,ioos:station:DISL:BSCA:1,2019-10-02T20:56:00Z,30.3288,-87.8293,29.16,11111222 
DISL,ioos:station:DISL:BSCA:1,2019-10-02T21:56:00Z,30.3288,-87.8293,29.36,11111222 
DISL,ioos:station:DISL:BSCA:1,2019-10-02T22:56:00Z,30.3288,-87.8293,28.82,11111222 
DISL,ioos:station:DISL:BSCA:1,2019-10-02T23:56:00Z,30.3288,-87.8293,28.65,11111222 
DISL,ioos:station:DISL:BSCA:1,2019-10-03T00:56:00Z,30.3288,-87.8293,28.36,11111222 
DISL,ioos:station:DISL:BSCA:1,2019-10-03T01:56:00Z,30.3288,-87.8293,28.49,11111222 
DISL,ioos:station:DISL:BSCA:1,2019-10-03T02:56:00Z,30.3288,-87.8293,28.53,11111222 
DISL,ioos:station:DISL:BSCA:1,2019-10-03T03:56:00Z,30.3288,-87.8293,28.63,11111222 
DISL,ioos:station:DISL:BSCA:1,2019-10-03T04:56:00Z,30.3288,-87.8293,28.46,11111222 
DISL,ioos:station:DISL:BSCA:1,2019-10-03T05:56:00Z,30.3288,-87.8293,28.46,11111222 
DISL,ioos:station:DISL:BSCA:1,2019-10-03T06:56:00Z,30.3288,-87.8293,28.36,11111222 
DISL,ioos:station:DISL:BSCA:1,2019-10-03T07:56:00Z,30.3288,-87.8293,25.75,11111222 
DISL,ioos:station:DISL:BSCA:1,2019-10-03T08:56:00Z,30.3288,-87.8293,25.48,11111222 
DISL,ioos:station:DISL:BSCA:1,2019-10-03T09:56:00Z,30.3288,-87.8293,25.85,11111222 
DISL,ioos:station:DISL:BSCA:1,2019-10-03T10:56:00Z,30.3288,-87.8293,25.52,11111222 
DISL,ioos:station:DISL:BSCA:1,2019-10-03T11:56:00Z,30.3288,-87.8293,24.74,11111222 
DISL,ioos:station:DISL:BSCA:1,2019-10-03T12:56:00Z,30.3288,-87.8293,25.69,11111222 
DISL,ioos:station:DISL:BSCA:1,2019-10-03T13:56:00Z,30.3288,-87.8293,27.44,11111222 
DISL,ioos:station:DISL:BSCA:1,2019-10-03T14:56:00Z,30.3288,-87.8293,28.58,11111222 
DISL,ioos:station:DISL:BSCA:1,2019-10-03T15:56:00Z,30.3288,-87.8293,29.19,11111222 
DISL,ioos:station:DISL:BSCA:1,2019-10-03T16:56:00Z,30.3288,-87.8293,29.23,11111222 
DISL,ioos:station:DISL:BSCA:1,2019-10-03T17:56:00Z,30.3288,-87.8293,29.97,11111222 
DISL,ioos:station:DISL:BSCA:1,2019-10-03T18:56:00Z,30.3288,-87.8293,30.38,11111222 
DISL,ioos:station:DISL:BSCA:1,2019-10-03T19:56:00Z,30.3288,-87.8293,30.41,11111222 
DISL,ioos:station:DISL:BSCA:1,2019-10-03T20:56:00Z,30.3288,-87.8293,30.34,11111222 
DISL,ioos:station:DISL:BSCA:1,2019-10-03T21:56:00Z,30.3288,-87.8293,30.48,11111222 
DISL,ioos:station:DISL:BSCA:1,2019-10-03T22:56:00Z,30.3288,-87.8293,30.07,11111222 
DISL,ioos:station:DISL:BSCA:1,2019-10-03T23:56:00Z,30.3288,-87.8293,29.56,11111222 
DISL,ioos:station:DISL:BSCA:1,2019-10-04T00:56:00Z,30.3288,-87.8293,29.3,11111222 
DISL,ioos:station:DISL:BSCA:1,2019-10-04T01:56:00Z,30.3288,-87.8293,29.3,11111222 
DISL,ioos:station:DISL:BSCA:1,2019-10-04T02:56:00Z,30.3288,-87.8293,29.1,11111222 
DISL,ioos:station:DISL:BSCA:1,2019-10-04T03:56:00Z,30.3288,-87.8293,28.8,11111222 
DISL,ioos:station:DISL:BSCA:1,2019-10-04T04:56:00Z,30.3288,-87.8293,28.36,11111222 
DISL,ioos:station:DISL:BSCA:1,2019-10-04T05:56:00Z,30.3288,-87.8293,28.39,11111222 
DISL,ioos:station:DISL:BSCA:1,2019-10-04T06:56:00Z,30.3288,-87.8293,28.43,11111222 
DISL,ioos:station:DISL:BSCA:1,2019-10-04T07:56:00Z,30.3288,-87.8293,28.32,11111222 
DISL,ioos:station:DISL:BSCA:1,2019-10-04T08:56:00Z,30.3288,-87.8293,27.44,11111222 
DISL,ioos:station:DISL:BSCA:1,2019-10-04T09:56:00Z,30.3288,-87.8293,26.97,11111222 
DISL,ioos:station:DISL:BSCA:1,2019-10-04T10:55:00Z,30.3288,-87.8293,26.5,11111222 
DISL,ioos:station:DISL:BSCA:1,2019-10-04T11:55:00Z,30.3288,-87.8293,26.7,11111222 
DISL,ioos:station:DISL:BSCA:1,2019-10-04T12:56:00Z,30.3288,-87.8293,26.73,11111222 
DISL,ioos:station:DISL:BSCA:1,2019-10-04T13:55:00Z,30.3288,-87.8293,27.95,11111222 
DISL,ioos:station:DISL:BSCA:1,2019-10-04T14:55:00Z,30.3288,-87.8293,28.62,11111222 
DISL,ioos:station:DISL:BSCA:1,2019-10-04T15:55:00Z,30.3288,-87.8293,29.33,11111222 
DISL,ioos:station:DISL:BSCA:1,2019-10-04T16:55:00Z,30.3288,-87.8293,29.43,11111222 
DISL,ioos:station:DISL:BSCA:1,2019-10-04T17:55:00Z,30.3288,-87.8293,29.56,11111222 
DISL,ioos:station:DISL:BSCA:1,2019-10-04T18:55:00Z,30.3288,-87.8293,29.77,11111222 
DISL,ioos:station:DISL:BSCA:1,2019-10-04T19:55:00Z,30.3288,-87.8293,29.7,11111222 
DISL,ioos:station:DISL:BSCA:1,2019-10-04T20:55:00Z,30.3288,-87.8293,29.56,11111222 
DISL,ioos:station:DISL:BSCA:1,2019-10-04T21:55:00Z,30.3288,-87.8293,29.39,11111222 
DISL,ioos:station:DISL:BSCA:1,2019-10-04T22:55:00Z,30.3288,-87.8293,29.36,11111222 
DISL,ioos:station:DISL:BSCA:1,2019-10-04T23:55:00Z,30.3288,-87.8293,29.09,11111222 
DISL,ioos:station:DISL:BSCA:1,2019-10-05T00:55:00Z,30.3288,-87.8293,28.76,11111222 
DISL,ioos:station:DISL:BSCA:1,2019-10-05T01:55:00Z,30.3288,-87.8293,28.73,11111222 
DISL,ioos:station:DISL:BSCA:1,2019-10-05T02:55:00Z,30.3288,-87.8293,28.93,11111222 
DISL,ioos:station:DISL:BSCA:1,2019-10-05T03:55:00Z,30.3288,-87.8293,28.59,11111222 
DISL,ioos:station:DISL:BSCA:1,2019-10-05T04:55:00Z,30.3288,-87.8293,26.16,11111222 
DISL,ioos:station:DISL:BSCA:1,2019-10-05T05:55:00Z,30.3288,-87.8293,26.06,11111222 
DISL,ioos:station:DISL:BSCA:1,2019-10-05T06:55:00Z,30.3288,-87.8293,25.14,11111222 
DISL,ioos:station:DISL:BSCA:1,2019-10-05T07:55:00Z,30.3288,-87.8293,24.91,11111222 
DISL,ioos:station:DISL:BSCA:1,2019-10-05T08:55:00Z,30.3288,-87.8293,25.11,11111222 
DISL,ioos:station:DISL:BSCA:1,2019-10-05T09:55:00Z,30.3288,-87.8293,24.5,11111222 
DISL,ioos:station:DISL:BSCA:1,2019-10-05T10:55:00Z,30.3288,-87.8293,24.64,11111222 
DISL,ioos:station:DISL:BSCA:1,2019-10-05T11:55:00Z,30.3288,-87.8293,24.06,11111222 
DISL,ioos:station:DISL:BSCA:1,2019-10-05T12:55:00Z,30.3288,-87.8293,24.87,11111222 
DISL,ioos:station:DISL:BSCA:1,2019-10-05T13:55:00Z,30.3288,-87.8293,26.26,11111222 
DISL,ioos:station:DISL:BSCA:1,2019-10-05T14:55:00Z,30.3288,-87.8293,28.28,11111222 
DISL,ioos:station:DISL:BSCA:1,2019-10-05T15:55:00Z,30.3288,-87.8293,29.33,11111222 
DISL,ioos:station:DISL:BSCA:1,2019-10-05T16:55:00Z,30.3288,-87.8293,29.67,11111222 
DISL,ioos:station:DISL:BSCA:1,2019-10-05T17:55:00Z,30.3288,-87.8293,29.09,11111222 
DISL,ioos:station:DISL:BSCA:1,2019-10-05T18:55:00Z,30.3288,-87.8293,28.85,11111222 
DISL,ioos:station:DISL:BSCA:1,2019-10-05T19:55:00Z,30.3288,-87.8293,28.99,11111222 
DISL,ioos:station:DISL:BSCA:1,2019-10-05T20:55:00Z,30.3288,-87.8293,28.96,11111222 
DISL,ioos:station:DISL:BSCA:1,2019-10-05T21:56:00Z,30.3288,-87.8293,29.12,11111222 
DISL,ioos:station:DISL:BSCA:1,2019-10-05T22:55:00Z,30.3288,-87.8293,28.79,11111222 
DISL,ioos:station:DISL:BSCA:1,2019-10-05T23:56:00Z,30.3288,-87.8293,28.42,11111222 
DISL,ioos:station:DISL:BSCA:1,2019-10-06T00:55:00Z,30.3288,-87.8293,28.39,11111222 
DISL,ioos:station:DISL:BSCA:1,2019-10-06T01:56:00Z,30.3288,-87.8293,27.0,11111222 
DISL,ioos:station:DISL:BSCA:1,2019-10-06T02:56:00Z,30.3288,-87.8293,26.67,11111222 
DISL,ioos:station:DISL:BSCA:1,2019-10-06T03:56:00Z,30.3288,-87.8293,25.99,11111222 
DISL,ioos:station:DISL:BSCA:1,2019-10-06T04:56:00Z,30.3288,-87.8293,25.62,11111222 
DISL,ioos:station:DISL:BSCA:1,2019-10-06T05:56:00Z,30.3288,-87.8293,24.03,11111222 
DISL,ioos:station:DISL:BSCA:1,2019-10-06T06:56:00Z,30.3288,-87.8293,24.34,11111222 
DISL,ioos:station:DISL:BSCA:1,2019-10-06T07:56:00Z,30.3288,-87.8293,24.4,11111222 
DISL,ioos:station:DISL:BSCA:1,2019-10-06T08:56:00Z,30.3288,-87.8293,24.0,11111222 
DISL,ioos:station:DISL:BSCA:1,2019-10-06T09:56:00Z,30.3288,-87.8293,24.4,11111222 
DISL,ioos:station:DISL:BSCA:1,2019-10-06T10:56:00Z,30.3288,-87.8293,24.13,11111222 
DISL,ioos:station:DISL:BSCA:1,2019-10-06T11:56:00Z,30.3288,-87.8293,24.2,11111222 
DISL,ioos:station:DISL:BSCA:1,2019-10-06T12:56:00Z,30.3288,-87.8293,23.7,11111222 
DISL,ioos:station:DISL:BSCA:1,2019-10-06T13:56:00Z,30.3288,-87.8293,24.14,11111222 
DISL,ioos:station:DISL:BSCA:1,2019-10-06T14:56:00Z,30.3288,-87.8293,24.04,11111222 
DISL,ioos:station:DISL:BSCA:1,2019-10-06T15:56:00Z,30.3288,-87.8293,25.52,11111222 
DISL,ioos:station:DISL:BSCA:1,2019-10-06T16:56:00Z,30.3288,-87.8293,25.89,11111222 
DISL,ioos:station:DISL:BSCA:1,2019-10-06T17:56:00Z,30.3288,-87.8293,26.6,11111222 
DISL,ioos:station:DISL:BSCA:1,2019-10-06T18:56:00Z,30.3288,-87.8293,26.94,11111222 
DISL,ioos:station:DISL:BSCA:1,2019-10-06T19:56:00Z,30.3288,-87.8293,27.14,11111222 
DISL,ioos:station:DISL:BSCA:1,2019-10-06T20:56:00Z,30.3288,-87.8293,27.24,11111222 
DISL,ioos:station:DISL:BSCA:1,2019-10-06T21:56:00Z,30.3288,-87.8293,27.24,11111222 
DISL,ioos:station:DISL:BSCA:1,2019-10-06T22:56:00Z,30.3288,-87.8293,27.11,11111222 
DISL,ioos:station:DISL:BSCA:1,2019-10-06T23:56:00Z,30.3288,-87.8293,27.31,11111222 
DISL,ioos:station:DISL:BSCA:1,2019-10-07T00:56:00Z,30.3288,-87.8293,27.04,11111222 
DISL,ioos:station:DISL:BSCA:1,2019-10-07T01:56:00Z,30.3288,-87.8293,25.82,11111222 
DISL,ioos:station:DISL:BSCA:1,2019-10-07T02:56:00Z,30.3288,-87.8293,25.96,11111222 
DISL,ioos:station:DISL:BSCA:1,2019-10-07T03:56:00Z,30.3288,-87.8293,25.35,11111222 
DISL,ioos:station:DISL:BSCA:1,2019-10-07T04:56:00Z,30.3288,-87.8293,25.21,11111222 
DISL,ioos:station:DISL:BSCA:1,2019-10-07T05:56:00Z,30.3288,-87.8293,24.94,11111222 
DISL,ioos:station:DISL:BSCA:1,2019-10-07T06:56:00Z,30.3288,-87.8293,24.33,11111222 
DISL,ioos:station:DISL:BSCA:1,2019-10-07T07:56:00Z,30.3288,-87.8293,25.69,11111222 
DISL,ioos:station:DISL:BSCA:1,2019-10-07T08:56:00Z,30.3288,-87.8293,24.1,11111222 
DISL,ioos:station:DISL:BSCA:1,2019-10-07T09:56:00Z,30.3288,-87.8293,24.06,11111222 
DISL,ioos:station:DISL:BSCA:1,2019-10-07T10:56:00Z,30.3288,-87.8293,23.42,11111222 
DISL,ioos:station:DISL:BSCA:1,2019-10-07T11:56:00Z,30.3288,-87.8293,23.13,11111222 
DISL,ioos:station:DISL:BSCA:1,2019-10-07T12:56:00Z,30.3288,-87.8293,23.29,11111222 
DISL,ioos:station:DISL:BSCA:1,2019-10-07T18:55:00Z,30.3288,-87.8293,27.37,11111222 
DISL,ioos:station:DISL:BSCA:1,2019-10-07T19:55:00Z,30.3288,-87.8293,28.01,11111222 
DISL,ioos:station:DISL:BSCA:1,2019-10-07T20:55:00Z,30.3288,-87.8293,27.94,11111222 
DISL,ioos:station:DISL:BSCA:1,2019-10-07T21:55:00Z,30.3288,-87.8293,26.19,11111222 
DISL,ioos:station:DISL:BSCA:1,2019-10-07T22:55:00Z,30.3288,-87.8293,26.4,11111222 
DISL,ioos:station:DISL:BSCA:1,2019-10-07T23:55:00Z,30.3288,-87.8293,26.7,11111222 
DISL,ioos:station:DISL:BSCA:1,2019-10-08T00:55:00Z,30.3288,-87.8293,26.23,11111222 
DISL,ioos:station:DISL:BSCA:1,2019-10-08T01:55:00Z,30.3288,-87.8293,25.85,11111222 
DISL,ioos:station:DISL:BSCA:1,2019-10-08T02:55:00Z,30.3288,-87.8293,25.69,11111222 
DISL,ioos:station:DISL:BSCA:1,2019-10-08T03:55:00Z,30.3288,-87.8293,25.04,11111222 
DISL,ioos:station:DISL:BSCA:1,2019-10-08T04:55:00Z,30.3288,-87.8293,24.5,11111222 
DISL,ioos:station:DISL:BSCA:1,2019-10-08T05:55:00Z,30.3288,-87.8293,23.89,11111222 
DISL,ioos:station:DISL:BSCA:1,2019-10-08T06:55:00Z,30.3288,-87.8293,23.32,11111222 
DISL,ioos:station:DISL:BSCA:1,2019-10-08T07:55:00Z,30.3288,-87.8293,22.72,11111222 
DISL,ioos:station:DISL:BSCA:1,2019-10-08T08:55:00Z,30.3288,-87.8293,22.31,11111222 
DISL,ioos:station:DISL:BSCA:1,2019-10-08T09:55:00Z,30.3288,-87.8293,21.98,11111222 
DISL,ioos:station:DISL:BSCA:1,2019-10-08T10:55:00Z,30.3288,-87.8293,21.64,11111222 
DISL,ioos:station:DISL:BSCA:1,2019-10-08T11:55:00Z,30.3288,-87.8293,21.58,11111222 
DISL,ioos:station:DISL:BSCA:1,2019-10-08T12:55:00Z,30.3288,-87.8293,21.54,11111222 
DISL,ioos:station:DISL:BSCA:1,2019-10-08T13:56:00Z,30.3288,-87.8293,22.51,11111222 
DISL,ioos:station:DISL:BSCA:1,2019-10-08T14:55:00Z,30.3288,-87.8293,23.62,11111222 
DISL,ioos:station:DISL:BSCA:1,2019-10-08T15:55:00Z,30.3288,-87.8293,25.52,11111222 
DISL,ioos:station:DISL:BSCA:1,2019-10-08T16:55:00Z,30.3288,-87.8293,26.22,11111222 
DISL,ioos:station:DISL:BSCA:1,2019-10-08T17:55:00Z,30.3288,-87.8293,25.95,11111222 
DISL,ioos:station:DISL:BSCA:1,2019-10-08T18:55:00Z,30.3288,-87.8293,26.02,11111222 
DISL,ioos:station:DISL:BSCA:1,2019-10-08T19:55:00Z,30.3288,-87.8293,26.73,11111222 
DISL,ioos:station:DISL:BSCA:1,2019-10-08T20:55:00Z,30.3288,-87.8293,27.5,11111222 
DISL,ioos:station:DISL:BSCA:1,2019-10-08T21:55:00Z,30.3288,-87.8293,28.18,11111222 
DISL,ioos:station:DISL:BSCA:1,2019-10-08T22:55:00Z,30.3288,-87.8293,28.24,11111222 
DISL,ioos:station:DISL:BSCA:1,2019-10-08T23:55:00Z,30.3288,-87.8293,28.28,11111222 
DISL,ioos:station:DISL:BSCA:1,2019-10-09T00:55:00Z,30.3288,-87.8293,27.55,11111222 
DISL,ioos:station:DISL:BSCA:1,2019-10-09T01:55:00Z,30.3288,-87.8293,27.34,11111222 
DISL,ioos:station:DISL:BSCA:1,2019-10-09T02:55:00Z,30.3288,-87.8293,26.19,11111222 
DISL,ioos:station:DISL:BSCA:1,2019-10-09T03:55:00Z,30.3288,-87.8293,25.62,11111222 
DISL,ioos:station:DISL:BSCA:1,2019-10-09T04:55:00Z,30.3288,-87.8293,25.08,11111222 
DISL,ioos:station:DISL:BSCA:1,2019-10-09T05:55:00Z,30.3288,-87.8293,24.23,11111222 
DISL,ioos:station:DISL:BSCA:1,2019-10-09T06:55:00Z,30.3288,-87.8293,23.39,11111222 
DISL,ioos:station:DISL:BSCA:1,2019-10-09T07:55:00Z,30.3288,-87.8293,23.16,11111222 
DISL,ioos:station:DISL:BSCA:1,2019-10-09T08:55:00Z,30.3288,-87.8293,22.69,11111222 
DISL,ioos:station:DISL:BSCA:1,2019-10-09T09:56:00Z,30.3288,-87.8293,21.91,11111222 
DISL,ioos:station:DISL:BSCA:1,2019-10-09T10:55:00Z,30.3288,-87.8293,21.51,11111222 
DISL,ioos:station:DISL:BSCA:1,2019-10-09T11:56:00Z,30.3288,-87.8293,21.44,11111222 
DISL,ioos:station:DISL:BSCA:1,2019-10-09T12:56:00Z,30.3288,-87.8293,21.71,11111222 
DISL,ioos:station:DISL:BSCA:1,2019-10-09T13:56:00Z,30.3288,-87.8293,23.05,11111222 
DISL,ioos:station:DISL:BSCA:1,2019-10-09T14:56:00Z,30.3288,-87.8293,25.48,11111222 
DISL,ioos:station:DISL:BSCA:1,2019-10-09T15:56:00Z,30.3288,-87.8293,26.55,11111222 
DISL,ioos:station:DISL:BSCA:1,2019-10-09T16:56:00Z,30.3288,-87.8293,28.11,11111222 
DISL,ioos:station:DISL:BSCA:1,2019-10-09T17:56:00Z,30.3288,-87.8293,28.21,11111222 
DISL,ioos:station:DISL:BSCA:1,2019-10-09T18:56:00Z,30.3288,-87.8293,28.35,11111222 
DISL,ioos:station:DISL:BSCA:1,2019-10-09T19:56:00Z,30.3288,-87.8293,27.84,11111222 
DISL,ioos:station:DISL:BSCA:1,2019-10-09T20:56:00Z,30.3288,-87.8293,27.57,11111222 
DISL,ioos:station:DISL:BSCA:1,2019-10-09T21:56:00Z,30.3288,-87.8293,27.87,11111222 
DISL,ioos:station:DISL:BSCA:1,2019-10-09T22:56:00Z,30.3288,-87.8293,27.97,11111222 
DISL,ioos:station:DISL:BSCA:1,2019-10-09T23:56:00Z,30.3288,-87.8293,27.48,11111222 
DISL,ioos:station:DISL:BSCA:1,2019-10-10T02:56:00Z,30.3288,-87.8293,27.58,11111222 
DISL,ioos:station:DISL:BSCA:1,2019-10-10T03:56:00Z,30.3288,-87.8293,27.68,11111222 
DISL,ioos:station:DISL:BSCA:1,2019-10-10T04:56:00Z,30.3288,-87.8293,27.68,11111222 
DISL,ioos:station:DISL:BSCA:1,2019-10-10T05:56:00Z,30.3288,-87.8293,27.68,11111222 
DISL,ioos:station:DISL:BSCA:1,2019-10-10T06:56:00Z,30.3288,-87.8293,27.58,11111222 
DISL,ioos:station:DISL:BSCA:1,2019-10-10T07:56:00Z,30.3288,-87.8293,27.58,11111222 
DISL,ioos:station:DISL:BSCA:1,2019-10-10T08:56:00Z,30.3288,-87.8293,26.77,11111222 
DISL,ioos:station:DISL:BSCA:1,2019-10-10T09:56:00Z,30.3288,-87.8293,25.48,11111222 
DISL,ioos:station:DISL:BSCA:1,2019-10-10T10:56:00Z,30.3288,-87.8293,25.85,11111222 
DISL,ioos:station:DISL:BSCA:1,2019-10-10T11:56:00Z,30.3288,-87.8293,23.25,11111222 
DISL,ioos:station:DISL:BSCA:1,2019-10-10T12:56:00Z,30.3288,-87.8293,23.43,11111222 
DISL,ioos:station:DISL:BSCA:1,2019-10-10T13:56:00Z,30.3288,-87.8293,24.6,11111222 
DISL,ioos:station:DISL:BSCA:1,2019-10-10T14:56:00Z,30.3288,-87.8293,25.55,11111222 
DISL,ioos:station:DISL:BSCA:1,2019-10-10T15:56:00Z,30.3288,-87.8293,26.5,11111222 
DISL,ioos:station:DISL:BSCA:1,2019-10-10T16:55:00Z,30.3288,-87.8293,26.4,11111222 
DISL,ioos:station:DISL:BSCA:1,2019-10-10T17:55:00Z,30.3288,-87.8293,26.53,11111222 
DISL,ioos:station:DISL:BSCA:1,2019-10-10T18:55:00Z,30.3288,-87.8293,26.83,11111222 
DISL,ioos:station:DISL:BSCA:1,2019-10-10T19:55:00Z,30.3288,-87.8293,26.89,11111222 
DISL,ioos:station:DISL:BSCA:1,2019-10-10T20:55:00Z,30.3288,-87.8293,26.72,11111222 
DISL,ioos:station:DISL:BSCA:1,2019-10-10T21:55:00Z,30.3288,-87.8293,26.93,11111222 
DISL,ioos:station:DISL:BSCA:1,2019-10-10T22:55:00Z,30.3288,-87.8293,26.76,11111222 
DISL,ioos:station:DISL:BSCA:1,2019-10-10T23:55:00Z,30.3288,-87.8293,26.46,11111222 
DISL,ioos:station:DISL:BSCA:1,2019-10-11T00:55:00Z,30.3288,-87.8293,26.29,11111222 
DISL,ioos:station:DISL:BSCA:1,2019-10-11T01:55:00Z,30.3288,-87.8293,25.58,11111222 
DISL,ioos:station:DISL:BSCA:1,2019-10-11T02:55:00Z,30.3288,-87.8293,25.38,11111222 
DISL,ioos:station:DISL:BSCA:1,2019-10-11T03:55:00Z,30.3288,-87.8293,26.36,11111222 
DISL,ioos:station:DISL:BSCA:1,2019-10-11T04:55:00Z,30.3288,-87.8293,24.94,11111222 
DISL,ioos:station:DISL:BSCA:1,2019-10-11T05:55:00Z,30.3288,-87.8293,24.67,11111222 
DISL,ioos:station:DISL:BSCA:1,2019-10-11T06:55:00Z,30.3288,-87.8293,27.55,11111222 
DISL,ioos:station:DISL:BSCA:1,2019-10-11T07:55:00Z,30.3288,-87.8293,27.34,11111222 
DISL,ioos:station:DISL:BSCA:1,2019-10-11T08:55:00Z,30.3288,-87.8293,27.31,11111222 
DISL,ioos:station:DISL:BSCA:1,2019-10-11T09:55:00Z,30.3288,-87.8293,25.69,11111222 
DISL,ioos:station:DISL:BSCA:1,2019-10-11T10:55:00Z,30.3288,-87.8293,26.97,11111222 
DISL,ioos:station:DISL:BSCA:1,2019-10-11T11:55:00Z,30.3288,-87.8293,26.7,11111222 
DISL,ioos:station:DISL:BSCA:1,2019-10-11T12:55:00Z,30.3288,-87.8293,26.53,11111222 
DISL,ioos:station:DISL:BSCA:1,2019-10-11T13:55:00Z,30.3288,-87.8293,25.52,11111222 
DISL,ioos:station:DISL:BSCA:1,2019-10-11T14:55:00Z,30.3288,-87.8293,27.21,11111222 
DISL,ioos:station:DISL:BSCA:1,2019-10-11T15:55:00Z,30.3288,-87.8293,27.27,11111222 
DISL,ioos:station:DISL:BSCA:1,2019-10-11T16:55:00Z,30.3288,-87.8293,27.06,11111222 
DISL,ioos:station:DISL:BSCA:1,2019-10-11T17:55:00Z,30.3288,-87.8293,26.83,11111222 
DISL,ioos:station:DISL:BSCA:1,2019-10-11T18:55:00Z,30.3288,-87.8293,26.69,11111222 
DISL,ioos:station:DISL:BSCA:1,2019-10-11T19:55:00Z,30.3288,-87.8293,26.9,11111222 
DISL,ioos:station:DISL:BSCA:1,2019-10-11T20:55:00Z,30.3288,-87.8293,26.76,11111222 
DISL,ioos:station:DISL:BSCA:1,2019-10-11T21:55:00Z,30.3288,-87.8293,26.4,11111222 
DISL,ioos:station:DISL:BSCA:1,2019-10-11T22:55:00Z,30.3288,-87.8293,26.5,11111222 
DISL,ioos:station:DISL:BSCA:1,2019-10-11T23:55:00Z,30.3288,-87.8293,26.57,11111222 
DISL,ioos:station:DISL:BSCA:1,2019-10-12T00:55:00Z,30.3288,-87.8293,26.57,11111222 
DISL,ioos:station:DISL:BSCA:1,2019-10-12T01:55:00Z,30.3288,-87.8293,26.77,11111222 
DISL,ioos:station:DISL:BSCA:1,2019-10-12T02:55:00Z,30.3288,-87.8293,27.21,11111222 
DISL,ioos:station:DISL:BSCA:1,2019-10-12T03:55:00Z,30.3288,-87.8293,27.07,11111222 
DISL,ioos:station:DISL:BSCA:1,2019-10-12T04:55:00Z,30.3288,-87.8293,25.48,11111222 
DISL,ioos:station:DISL:BSCA:1,2019-10-12T05:55:00Z,30.3288,-87.8293,27.14,11111222 
DISL,ioos:station:DISL:BSCA:1,2019-10-12T06:55:00Z,30.3288,-87.8293,24.87,11111222 
DISL,ioos:station:DISL:BSCA:1,2019-10-12T07:55:00Z,30.3288,-87.8293,23.86,11111222 
DISL,ioos:station:DISL:BSCA:1,2019-10-12T08:55:00Z,30.3288,-87.8293,23.93,11111222 
DISL,ioos:station:DISL:BSCA:1,2019-10-12T09:55:00Z,30.3288,-87.8293,24.4,11111222 
DISL,ioos:station:DISL:BSCA:1,2019-10-12T10:55:00Z,30.3288,-87.8293,24.0,11111222 
DISL,ioos:station:DISL:BSCA:1,2019-10-12T11:55:00Z,30.3288,-87.8293,23.76,11111222 
DISL,ioos:station:DISL:BSCA:1,2019-10-12T12:55:00Z,30.3288,-87.8293,22.62,11111222 
DISL,ioos:station:DISL:BSCA:1,2019-10-12T13:56:00Z,30.3288,-87.8293,22.31,11111222 
DISL,ioos:station:DISL:BSCA:1,2019-10-12T14:55:00Z,30.3288,-87.8293,22.48,11111222 
DISL,ioos:station:DISL:BSCA:1,2019-10-12T15:26:00Z,30.3288,-87.8293,20.42,11111222 
DISL,ioos:station:DISL:BSCA:1,2019-10-12T16:56:00Z,30.3288,-87.8293,21.59,11111222 
DISL,ioos:station:DISL:BSCA:1,2019-10-12T17:56:00Z,30.3288,-87.8293,21.76,11111222 
DISL,ioos:station:DISL:BSCA:1,2019-10-12T18:56:00Z,30.3288,-87.8293,23.52,11111222 
DISL,ioos:station:DISL:BSCA:1,2019-10-12T19:56:00Z,30.3288,-87.8293,24.2,11111222 
DISL,ioos:station:DISL:BSCA:1,2019-10-12T20:56:00Z,30.3288,-87.8293,22.84,11111222 
DISL,ioos:station:DISL:BSCA:1,2019-10-12T21:56:00Z,30.3288,-87.8293,23.45,11111222 
DISL,ioos:station:DISL:BSCA:1,2019-10-12T22:56:00Z,30.3288,-87.8293,21.56,11111222 
DISL,ioos:station:DISL:BSCA:1,2019-10-12T23:56:00Z,30.3288,-87.8293,20.35,11111222 
DISL,ioos:station:DISL:BSCA:1,2019-10-13T00:56:00Z,30.3288,-87.8293,19.14,11111222 
DISL,ioos:station:DISL:BSCA:1,2019-10-13T01:56:00Z,30.3288,-87.8293,18.26,11111222 
DISL,ioos:station:DISL:BSCA:1,2019-10-13T02:56:00Z,30.3288,-87.8293,17.72,11111222 
DISL,ioos:station:DISL:BSCA:1,2019-10-13T03:56:00Z,30.3288,-87.8293,17.32,11111222 
DISL,ioos:station:DISL:BSCA:1,2019-10-13T04:56:00Z,30.3288,-87.8293,17.32,11111222 